Regional Weather Roundup
Issued by NWS

Home | Current Version | Previous Version | Graphics & Text | Print | Product List | Glossary On
Versions: 1 2 3 4 5 6 7 8 9 10 11 12 13 14 15 16 17 18 19 20 21 22 23 24 25 26 27 28 29 30 31 32 33 34 35 36 37 38 39 40 41 42 43 44 45 46 47 48 49 50
000
ASUS45 KABQ 210710
RWRNM
NEW MEXICO REGIONAL WEATHER ROUNDUP
NATIONAL WEATHER SERVICE ALBUQUERQUE NM
100 AM MDT MON AUG 21 2017

NOTE: "FAIR" MEANS FEW OR NO CLOUDS BELOW 12,000 FEET AGL WITH NO
       SIGNIFICANT WEATHER OR OBSTRUCTIONS TO VISION.

      THIS PRODUCT IS RELEASED AS TWO VERSIONS.  ONE VERSION NEAR
      THE TOP OF THE HOUR CONTAINING PRELIMINARY DATA FROM ALBUQUERQUE
      AND OTHER STATIONS.  A FINAL VERSION WITH ADDITIONAL DATA IS
      ISSUED ABOUT 10 MINUTES AFTER THE HOUR.

NMZ501-503-504-510>518-210800-
NORTHWEST PLATEAU/NORTHCENTRAL MOUNTAINS

CITY           SKY/WX    TMP DP  RH WIND       PRES   REMARKS
FARMINGTON     FAIR      65  53  65 SE7       30.21S
LOS ALAMOS     LGT RAIN  56  53  88 W5        30.34F
SANTA FE       CLOUDY    58  57  97 E7        30.28F
TAOS           LGT RAIN  56  53  90 NW10      30.34
ANGEL FIRE     CLOUDY    53  47  80 CALM      30.38F

$$
NMZ402-403-502-505>509-210800-
WESTCENTRAL MOUNTAINS/SOUTHWEST MOUNTAINS

CITY           SKY/WX    TMP DP  RH WIND       PRES   REMARKS
GALLUP         FAIR      57  54  89 W7        30.25F
GRANTS         CLOUDY    59  49  69 N3        30.29S
SILVER CITY    CLOUDY    65  61  86 CALM      30.22F

$$
NMZ407-409-411-412-210800-
SOUTHERN DESERTS

CITY           SKY/WX    TMP DP  RH WIND       PRES   REMARKS
DEMING         CLOUDY    67  65  93 CALM      30.15F
LAS CRUCES     MOCLDY    69  65  86 CALM      30.17S
HOLLOMAN AFB   FAIR      67  67 100 CALM      30.16S
ALAMOGORDO     MOCLDY    66  64  94 CALM      30.16S
T OR C         CLOUDY    69  62  78 CALM      30.17S

$$
NMZ519>523-210800-
CENTRAL VALLEYS/CENTRAL HIGHLANDS

CITY           SKY/WX    TMP DP  RH WIND       PRES   REMARKS
ALBUQUERQUE    RAIN      60  59  96 W6        30.22S FOG
MORIARTY ARPT  CLOUDY    62  61  96 CALM      30.28S
CLINES CORNERS LGT RAIN  57  55  93 E9        30.31F
BELEN          HVY RAIN  60  60 100 N8        30.22R
SOCORRO        CLOUDY    66  58  74 SE5       30.18R

$$
NMZ524>526-539-540-210800-
SOUTHCENTRAL MOUNTAINS

CITY           SKY/WX    TMP DP  RH WIND       PRES   REMARKS
RUIDOSO        NOT AVBL

$$
NMZ527>531-210800-
NORTHEAST HIGHLANDS/NORTHEAST PLAINS

CITY           SKY/WX    TMP DP  RH WIND       PRES   REMARKS
LAS VEGAS      HVY RAIN  56  54  93 W8        30.33R FOG
RATON          FAIR      60  54  80 SW5       30.26S
CLAYTON        FAIR      64  57  78 SW14      30.18F

$$
NMZ532>537-210800-
EASTCENTRAL PLAINS

CITY           SKY/WX    TMP DP  RH WIND       PRES   REMARKS
SANTA ROSA     CLOUDY    63  62  96 S3        30.19S
TUCUMCARI      CLOUDY    69  65  86 CALM      30.13S
CANNON AFB     CLOUDY    65  65 100 CALM      30.18F
CLOVIS AIRPORT CLOUDY    65  64  97 CALM      30.18S

$$
NMZ028-029-538-210800-
SOUTHEAST PLAINS

CITY           SKY/WX    TMP DP  RH WIND       PRES   REMARKS
ROSWELL        MOCLDY    70  66  87 SE3       30.13S
ARTESIA        FAIR      68  68 100 SE5       30.12S
CARLSBAD       CLOUDY    69  69 100 CALM      30.10R
HOBBS          CLOUDY    70  68  94 CALM      30.13S


$$




USA.gov is the U.S. government's official web portal to all federal, state and local government web resources and services.